TimeEST,TemperatureF,Dew PointF,Humidity,Sea Level PressureIn,VisibilityMPH,Wind Direction,Wind SpeedMPH,Gust SpeedMPH,PrecipitationIn,Events,Conditions,WindDirDegrees,DateUTC
12:53 AM,30.0,21.9,72,30.21,10.0,North,12.7,-,N/A,,Scattered Clouds,350,2013-03-08 05:53:00
1:53 AM,30.0,21.9,72,30.21,10.0,NNW,10.4,-,N/A,,Overcast,340,2013-03-08 06:53:00
2:53 AM,30.0,21.9,72,30.21,10.0,North,15.0,-,N/A,,Overcast,350,2013-03-08 07:53:00
3:53 AM,30.0,21.9,72,30.22,10.0,NNW,13.8,-,N/A,,Overcast,340,2013-03-08 08:53:00
4:53 AM,30.0,21.9,72,30.22,10.0,NNW,12.7,-,N/A,,Overcast,340,2013-03-08 09:53:00
5:53 AM,28.9,21.9,75,30.24,10.0,North,15.0,-,N/A,,Overcast,350,2013-03-08 10:53:00
6:53 AM,30.0,23.0,75,30.26,10.0,North,12.7,21.9,N/A,,Overcast,350,2013-03-08 11:53:00
7:53 AM,30.9,23.0,72,30.27,10.0,North,12.7,-,N/A,,Overcast,350,2013-03-08 12:53:00
8:53 AM,33.1,23.0,66,30.27,10.0,NNW,17.3,-,N/A,,Mostly Cloudy,340,2013-03-08 13:53:00
9:25 AM,33.8,24.8,70,30.28,10.0,NNW,15.0,-,N/A,,Overcast,340,2013-03-08 14:25:00
9:53 AM,33.1,23.0,66,30.29,10.0,North,16.1,-,N/A,,Overcast,350,2013-03-08 14:53:00
10:53 AM,35.1,23.0,61,30.29,10.0,NNW,12.7,-,N/A,,Overcast,330,2013-03-08 15:53:00
11:44 AM,37.4,24.8,60,30.28,10.0,NNW,16.1,-,N/A,,Mostly Cloudy,340,2013-03-08 16:44:00
11:53 AM,36.0,23.0,59,30.30,10.0,North,17.3,-,N/A,,Mostly Cloudy,360,2013-03-08 16:53:00
12:53 PM,37.9,24.1,57,30.29,10.0,NNW,13.8,23.0,N/A,,Mostly Cloudy,340,2013-03-08 17:53:00
1:53 PM,37.0,24.1,59,30.29,10.0,NNW,15.0,23.0,N/A,,Partly Cloudy,340,2013-03-08 18:53:00
2:53 PM,37.9,23.0,55,30.30,10.0,NNW,16.1,23.0,N/A,,Clear,340,2013-03-08 19:53:00
3:53 PM,37.9,23.0,55,30.30,10.0,North,18.4,-,N/A,,Clear,350,2013-03-08 20:53:00
4:53 PM,37.0,23.0,57,30.32,10.0,North,16.1,-,N/A,,Clear,360,2013-03-08 21:53:00
5:53 PM,34.0,24.1,67,30.33,10.0,North,6.9,-,N/A,,Clear,350,2013-03-08 22:53:00
6:53 PM,30.0,21.0,69,30.34,10.0,NNW,4.6,-,N/A,,Clear,340,2013-03-08 23:53:00
7:53 PM,28.0,21.9,78,30.35,10.0,Calm,Calm,-,N/A,,Clear,0,2013-03-09 00:53:00
8:53 PM,27.0,21.0,78,30.36,10.0,Calm,Calm,-,N/A,,Clear,0,2013-03-09 01:53:00
9:53 PM,26.1,19.9,78,30.35,10.0,Calm,Calm,-,N/A,,Clear,0,2013-03-09 02:53:00
10:53 PM,30.0,19.9,66,30.35,10.0,West,5.8,-,N/A,,Clear,270,2013-03-09 03:53:00
11:53 PM,28.9,19.0,67,30.34,10.0,Calm,Calm,-,N/A,,Clear,0,2013-03-09 04:53:00